OBJECT N

Satellite information

Favourite Embed

Satellite Type and Status

UNKNOWNIN ORBIT

Key statistics

Satellite OBJECT N at a glance.

Uptime

2028

Days in orbit

Revolutions

≈ 15.2

Per day

Orbit

SSO

Sun Synchronous Orbit

Inclination

98.0

Latest

Satellite identification and parameters

Extended collection of information and parameters for OBJECT N.

Object identification

Identified? True

Debris? False

Object name: OBJECT N

International designator: 2019-093N

Object number (NORAD): 44891

Object ID (CCSDS): 44891

Country: TO BE DETERMINED/UNKNOWN (TBD)

Current information (Y/N): Y

RCS size: SMALL

Orbital parameters

Period: 94.916 minutes

Inclination: 98.0254 deg

SMA: 6892.676 km

Apoapsis: 521.213 km

Periapsis: 507.869 km

RAAN: 324.77 deg

Eccentricy: 0.000968

Argument of periapsis: 156.8803 deg

Mean anomaly: 203.2866 deg

Mean motion: 15.17123634 rev/day

Mean motion (dot): 0.00011855 rev/day2

B* drag term: 0.0006004 1/REarth

Two-line elements (TLE)

Creation date: July 8, 2025, 2:27 a.m.

Reference frame: TEME

Reference center: EARTH

Epoch: July 7, 2025, 7:08 p.m. UTC

TLE line 0: 0 OBJECT N

TLE line 1: 1 44891U 19093N 25188.79757047 .00011855 00000-0 60040-3 0 9991

TLE line 2: 2 44891 98.0254 324.7700 0009680 156.8803 203.2866 15.17123634302277

Live tracking on map

Real-time ground track for satellite OBJECT N.

In-orbit conjunctions

There are no conjunctions computed for OBJECT N, at the moment. Check back to stay up to date, as we update our databases every day.

Go to all conjunctions

Associated space launch

On April 24, 2015, China and Brazil have signed the agreement for the construction of CBERS-4A. It's a third satellite in the continuity to the CBERS program, and a sixth CBERS satellite to be constructed. The CBERS satellites enhance and complement the existing remote sensing systems in an effort to improve our knowledge about the Earth environment and resources.

OBJECT N was lifted into orbit during the mission ‘Long March 4B | CBERS-4A’, on board a Long March 4B space rocket.

The launch took place on Dec. 20, 2019, 3:22 a.m. from Launch Complex 9.

For more information about the launch, click the button.

Launch to space Long March 4B | CBERS-4A
Long March 4B | CBERS-4A

Agency: N/A

Status: Launch Successful

Launch date: Dec. 20, 2019, 3:22 a.m. UTC

Rocket: Long March 4B

Launch pad: Launch Complex 9

Location: Taiyuan Satellite Launch Center, People's Republic of China

...

Latest news about this satellite

News about space launch
Long March 4B lofts CBERS-04A and Ethiopia’s first satellite


Newsletter sign-up

Weekly statistics, charts and insights to help you stay on top of the space industry.